User: anonymous   Login
Location: Unspecified
(0.0000°N, 0.0000°E)
Time: 11:28:57
(UTC+00:00)
Language:

MUOS 4 - Orbit

View from above orbital plane
View from above orbital plane
View from above satellite
View from above satellite

Ground track
Ground track

The orbit data is extracted from the following two-line orbital elements,

1 40887U 15044A   18298.62783996 0.00000000  00000-0  00000-0 0    02
2 40887   3.6863 334.4344 0052410 359.3139   0.7766  1.00270000    01
Epoch (UTC): 25 October 2018 15:04:05
Eccentricity: 0.0052410
inclination: 3.6863°
perigee height: 35566 km
apogee height: 36008 km
right ascension of ascending node: 334.4344°
argument of perigee: 359.3139°
revolutions per day: 1.00270000
mean anomaly at epoch: 0.7766°
orbit number at epoch: 0

The dashed part of the orbit path shows where the satellite is in the earth's shadow,  

DLR